Temperature
18 18 18 18 18 18 18 18 18 18 18 18 18 18 18 18 18 18 18 18 18 18 18 18 18 18 18 18 19 19 19 18 18 18 18 18 18 18 18 18 18 18 18
18 18 18 18 18 18 18 18 18 18 18 18 18 18 18 18 18 18 18 18 18 18 18 18 18 18 18 18 18 18 18 18 18 18 18 18 18 18 18 18 18 18 18
18 18 18 18 18 18 18 18 18 18 18 18 18 18 18 18 18 18 18 18 18 18 18 18 18 18 18 18 18 18 18 18 18 18 18 18 18 18 18 18 18 18 18
18 18 18 18 18 18 18 17 17 18 18 18 18 18 18 18 18 18 18 18 18 18 18 18 18 18 18 18 18 18 18 18 18 18 17 17 18 18 18 18 18 18 18
18 18 18 18 18 18 17 17 17 17 17 17 18 18 18 18 18 18 18 18 18 18 18 18 18 18 18 18 18 18 18 18 17 17 17 17 17 18 18 18 17 17 17
18 18 18 18 18 18 17 17 17 17 17 17 17 18 17 17 17 18 17 17 17 18 18 18 18 18 18 17 17 17 17 17 17 17 17 17 17 17 17 17 17 17 17
18 18 18 18 18 18 17 17 17 17 17 17 17 17 17 17 17 17 17 17 17 17 17 18 18 17 17 17 17 17 17 17 17 17 17 17 17 17 17 17 17 17 17
18 18 18 18 18 18 17 17 17 17 17 17 17 17 17 17 17 17 17 17 17 17 17 17 17 17 17 17 17 17 17 17 17 17 17 17 17 17 17 17 17 17 17
18 18 18 18 18 18 17 17 17 17 17 17 17 17 17 17 17 17 17 17 17 17 17 17 17 17 17 17 17 17 17 17 17 16 16 17 17 17 17 17 17 17 17
19 18 18 18 18 18 17 17 17 17 17 17 17 17 17 17 17 17 17 17 17 17 17 17 17 17 17 17 17 17 17 17 16 16 16 16 16 16 16 17 17 17 17
19 19 18 18 18 17 17 17 17 17 17 17 17 17 17 17 17 17 17 17 17 17 17 17 17 17 17 17 17 16 16 16 16 16 16 16 16 16 16 16 16 16 16
19 19 19 18 18 18 17 17 17 17 17 17 17 17 17 17 17 17 16 17 17 17 16 16 16 17 16 16 16 16 16 16 16 16 16 16 16 16 16 16 16 16 16
19 19 19 19 18 18 17 17 17 17 17 17 17 17 17 16 16 16 16 16 16 16 16 16 16 16 16 16 16 16 16 16 16 16 16 16 16 16 16 16 16 16 16
19 19 19 19 18 18 17 17 17 17 17 17 17 17 17 16 16 16 16 16 16 16 16 16 16 16 16 16 16 16 16 16 16 16 16 16 16 16 16 16 16 15 16
19 19 19 19 18 18 18 17 17 17 17 17 17 17 17 16 16 16 16 16 16 16 16 16 16 16 16 16 16 16 16 16 16 16 16 16 16 16 16 16 15 15 15
19 19 19 19 18 18 18 17 17 17 17 17 17 17 17 16 16 16 16 16 16 16 16 16 16 16 16 16 16 16 16 16 15 15 15 15 15 15 15 15 15 15 15
20 19 19 19 18 18 18 18 17 17 17 17 17 17 16 16 16 16 16 16 16 16 16 16 16 16 16 16 15 15 15 15 15 15 15 15 15 15 15 15 15 15 15
20 19 19 19 18 18 18 17 17 17 17 17 17 17 17 16 16 16 16 16 16 16 15 15 15 15 15 15 15 15 15 15 15 15 15 15 15 15 15 15 15 15 15
20 19 19 19 18 18 18 17 17 17 17 16 16 16 16 16 16 16 16 16 15 15 15 15 15 15 15 15 15 15 15 15 15 15 15 15 15 15 15 15 15 15 15
20 20 19 19 18 18 17 17 17 17 17 16 16 16 16 16 16 16 16 15 15 15 15 15 15 15 15 15 15 15 15 15 15 15 15 15 15 15 15 14 14 14 14
20 20 19 19 18 18 17 17 17 17 16 16 16 16 16 16 16 16 15 15 15 15 15 15 15 15 15 15 15 15 15 15 15 15 15 15 15 15 14 14 14 14 14
20 20 19 19 18 18 18 17 17 17 16 16 16 16 16 16 15 15 15 15 15 15 15 15 15 15 14 15 15 15 15 15 15 15 15 15 14 14 14 14 14 14 14
20 19 19 19 19 18 18 17 17 17 16 16 16 16 16 15 15 15 15 15 15 15 15 14 14 14 14 14 15 15 14 14 14 14 14 14 14 14 14 14 14 14 14
19 19 19 19 18 18 17 17 17 17 16 16 16 16 16 16 15 15 15 15 15 15 15 14 14 14 14 14 14 14 15 15 14 14 14 14 14 14 14 14 14 14 14
19 19 18 18 18 18 17 17 17 17 16 16 16 16 16 15 15 15 15 15 15 14 14 14 14 14 14 14 14 14 14 14 14 14 14 14 14 14 14 14 14 13 13
19 18 18 18 18 17 17 17 17 17 16 16 16 16 16 15 15 15 15 15 15 14 14 14 14 14 14 14 14 14 14 14 14 14 14 14 14 14 14 13 13 13 13
Wind_Speed
8 10 10 10 10 10 10 10 9 9 10 10 11 11 11 11 12 12 12 12 12 13 13 13 13 13 14 14 13 13 13 13 12 12 11 11 11 10 10 9 9 9 12
10 12 11 10 10 10 10 10 10 10 10 10 11 11 11 12 12 12 12 12 12 12 12 13 13 13 13 13 12 12 12 11 11 11 11 10 11 10 11 11 10 9 11
10 12 11 10 10 10 10 10 10 10 10 10 11 11 11 12 12 12 12 12 12 12 12 12 12 12 12 11 10 10 10 10 10 10 9 8 10 12 11 11 10 9 10
11 12 11 10 10 10 10 10 10 10 10 10 10 10 11 11 12 12 12 12 12 12 12 12 11 11 11 11 10 10 10 9 9 8 8 9 10 13 12 11 10 9 9
11 13 12 10 10 10 10 10 10 10 10 10 10 10 11 11 12 12 12 11 12 12 12 11 11 11 10 10 10 10 9 10 9 9 10 12 12 13 13 11 11 10 10
11 13 12 11 10 10 9 9 10 10 10 10 10 11 11 11 12 11 11 11 12 11 11 11 10 10 10 10 10 9 9 10 9 9 11 12 12 12 12 12 11 10 10
10 12 12 11 10 10 9 9 9 10 10 10 10 10 11 11 11 11 11 11 11 11 11 11 10 10 10 10 10 9 9 9 8 9 10 12 12 13 12 11 11 11 10
9 11 12 11 11 10 10 10 10 10 10 10 10 11 11 11 11 12 12 12 11 11 10 10 10 10 9 9 9 9 10 9 9 9 11 12 13 13 12 12 11 10 10
7 9 10 11 11 11 12 12 12 12 11 10 10 10 10 11 11 12 12 11 11 10 10 9 9 9 9 8 8 9 9 9 8 8 11 11 12 13 13 12 11 11 10
6 6 8 9 11 11 11 12 12 11 10 9 9 9 9 10 11 12 12 11 10 9 8 8 8 8 8 7 7 7 7 7 8 10 10 11 13 13 12 12 11 11 11
6 6 6 7 7 10 10 10 10 10 8 8 7 7 7 7 9 10 11 10 9 8 7 6 6 5 5 5 6 6 5 5 8 10 10 12 13 13 12 12 12 11 11
5 5 5 6 6 7 8 8 6 6 6 5 5 6 5 6 8 10 10 9 7 6 5 4 3 3 3 3 4 3 4 7 8 10 10 12 12 12 12 12 12 12 11
5 4 5 6 7 6 4 5 4 4 4 4 5 7 6 6 7 8 6 6 5 3 2 2 2 2 3 4 5 5 7 8 9 10 11 12 12 12 12 12 12 12 12
5 4 5 6 6 6 6 4 3 3 3 3 4 7 5 2 3 4 3 4 3 3 3 3 2 4 5 6 6 6 7 7 9 10 11 13 13 13 12 12 12 12 12
6 5 5 5 6 6 5 3 4 3 3 4 4 5 6 3 2 3 3 4 3 3 3 2 3 4 5 5 6 7 6 7 9 10 10 13 13 12 12 12 11 11 11
7 6 5 5 6 6 5 3 4 4 4 5 3 4 6 4 3 3 3 3 3 3 3 3 3 3 3 4 4 5 5 6 7 8 10 11 12 12 12 12 11 11 11
7 7 6 5 5 6 5 4 4 4 4 3 3 4 6 5 4 4 3 3 3 4 4 4 4 3 3 4 4 3 4 5 4 6 8 9 9 10 11 11 11 10 10
8 8 7 5 5 6 5 4 3 4 4 3 4 4 5 5 6 4 3 2 3 4 3 3 3 3 3 3 3 3 3 3 4 5 6 7 8 9 9 10 10 9 9
8 9 8 6 6 6 5 4 3 4 4 3 4 4 4 4 6 5 2 2 4 3 3 3 4 3 3 3 3 3 3 3 2 4 4 6 8 9 9 9 9 9 9
6 8 8 6 6 6 4 4 3 3 2 3 3 3 3 3 5 4 2 3 3 3 3 3 3 3 2 2 3 3 2 2 2 3 3 5 5 8 8 8 8 7 8
5 6 8 7 5 5 4 3 3 2 2 2 2 3 2 2 3 3 2 3 3 3 2 2 3 2 1 2 2 2 2 2 3 3 3 3 3 5 6 7 7 7 7
5 4 7 6 6 5 3 3 3 3 2 3 2 2 1 1 2 2 2 2 3 2 1 2 3 2 1 1 1 1 1 2 2 2 2 2 2 3 4 5 6 6 7
4 4 4 5 6 6 5 3 3 3 1 2 2 2 1 1 2 1 2 2 3 3 2 2 2 2 1 1 1 1 1 1 0 1 1 3 2 2 2 2 4 6 7
3 4 4 4 4 5 5 4 4 3 2 3 3 3 3 3 2 2 1 1 2 3 3 3 3 2 2 1 1 1 1 2 2 0 2 1 1 2 1 2 3 5 7
4 3 3 3 3 4 4 5 3 2 2 1 2 3 3 2 2 3 2 2 2 2 3 3 2 2 2 2 1 0 1 1 1 1 1 1 1 0 2 2 2 4 6
5 3 2 3 3 3 3 4 4 4 3 2 2 3 2 2 3 3 3 2 2 2 3 3 3 3 2 1 1 1 1 1 1 1 1 1 1 1 1 1 2 3 5
Wind_Direction
88 87 72 67 62 60 60 59 58 58 59 61 63 65 66 70 72 73 73 73 75 76 75 72 70 68 67 66 67 67 68 69 74 84 89 90 86 84 84 84 90 91 96
98 94 79 71 66 63 62 62 62 63 63 65 67 67 68 72 73 73 75 76 78 78 76 73 71 69 68 66 68 70 71 73 75 79 83 81 81 82 82 82 85 90 93
98 98 84 72 69 67 65 64 66 67 67 68 70 69 71 75 75 74 75 77 78 78 76 74 73 69 68 68 69 71 73 74 75 73 73 77 79 76 77 79 85 95 94
94 91 83 75 70 68 67 67 69 71 69 70 73 74 76 79 79 77 76 77 78 79 79 78 77 73 71 70 69 71 72 69 65 64 63 71 77 77 73 72 79 88 92
90 92 89 81 73 69 69 72 75 75 73 73 76 78 81 82 80 79 78 79 80 82 82 81 78 76 73 70 67 67 68 64 62 61 67 72 75 76 75 71 72 82 88
99 99 98 89 79 73 72 78 84 83 79 77 79 81 84 84 83 81 79 79 80 82 83 83 81 78 74 70 66 63 66 65 63 67 71 76 78 75 73 70 71 79 84
106 107 109 101 90 81 79 82 90 90 86 83 84 85 87 86 86 84 80 79 79 79 81 81 83 82 76 69 64 63 67 67 73 74 75 78 79 75 71 70 71 75 79
109 112 114 112 102 92 84 88 96 99 95 92 91 92 92 89 86 84 82 81 80 80 80 80 82 82 75 66 62 62 62 59 72 78 78 78 78 75 71 69 71 74 77
101 114 122 124 116 102 92 94 101 104 104 103 102 100 99 96 92 89 86 83 83 83 84 86 86 83 76 68 65 67 62 57 60 70 79 79 78 76 74 73 73 74 76
110 109 119 123 124 121 113 108 111 114 115 117 115 113 112 109 102 94 91 86 85 87 90 94 96 92 85 77 72 68 59 58 67 73 79 81 79 77 76 75 75 76 76
110 112 112 116 119 120 120 121 129 131 132 132 135 130 122 118 113 104 100 99 95 94 98 105 112 112 105 95 81 71 67 76 78 77 76 81 80 78 78 77 75 75 75
111 112 121 119 111 109 112 126 134 129 146 145 131 128 118 105 107 110 118 114 113 111 117 131 150 157 151 125 106 91 81 84 84 80 76 81 82 82 81 79 76 74 73
124 113 112 115 111 110 104 110 101 107 124 111 106 107 97 104 116 118 125 128 123 109 92 121 164 128 107 97 95 90 79 76 78 79 78 82 82 84 84 82 78 75 73
108 110 110 112 111 111 102 103 108 103 98 94 96 104 98 96 102 110 111 107 104 86 62 56 65 73 75 75 83 83 85 87 85 89 82 82 82 84 86 85 81 77 75
122 114 100 105 107 105 101 115 100 85 84 86 60 91 100 93 96 99 98 96 88 80 73 55 60 67 67 60 65 74 78 85 91 94 92 88 87 86 84 85 84 80 76
129 120 111 104 104 107 113 113 98 93 85 82 71 82 91 90 85 82 93 84 77 76 75 77 77 86 84 79 66 62 76 82 87 99 107 96 89 88 87 86 84 81 77
134 126 112 102 101 103 105 99 98 96 89 82 71 75 91 85 83 84 87 88 82 74 70 66 65 80 94 95 89 76 73 81 86 93 107 112 103 94 92 88 86 81 78
136 127 124 121 107 99 95 93 98 92 85 75 74 62 76 81 84 76 78 83 85 77 72 74 71 70 72 74 70 66 71 74 82 99 107 113 115 107 101 95 89 83 78
130 132 134 126 120 106 104 105 89 94 94 87 76 56 61 78 90 91 78 71 86 80 71 73 70 70 71 72 79 78 68 58 46 80 91 102 113 117 117 112 100 89 83
130 133 132 129 133 122 112 107 95 96 99 92 86 71 51 71 90 96 102 87 79 84 73 76 81 72 73 82 76 73 78 79 59 57 60 78 95 112 120 124 121 104 90
137 136 132 143 140 128 129 128 124 122 125 115 115 95 67 70 99 105 88 93 83 88 93 88 94 85 64 75 78 56 38 65 88 86 75 69 79 99 110 114 124 125 108
145 144 141 145 141 132 132 142 143 127 137 126 126 120 127 101 95 116 139 129 120 112 102 101 102 91 47 59 95 87 57 18 16 83 107 103 84 81 88 102 107 109 113
151 150 142 146 144 143 149 136 113 109 106 126 150 148 174 166 139 128 106 129 149 150 145 144 124 128 151 313 49 98 114 141 285 9 74 95 91 74 71 95 102 104 103
160 150 152 156 154 147 145 143 154 160 171 180 165 164 183 170 148 145 141 175 175 159 160 177 155 155 156 222 312 17 139 134 135 126 330 57 112 123 125 85 91 95 100
147 137 148 145 141 139 143 152 168 175 182 164 149 155 171 170 169 174 176 197 196 176 177 176 157 163 178 191 200 267 19 17 203 153 217 271 324 253 128 121 109 111 109
122 130 145 141 142 142 152 161 181 185 176 167 166 170 183 182 190 193 190 188 191 190 190 176 171 178 196 208 215 194 170 207 229 162 189 224 231 254 131 116 114 125 127
Height
1512 1511 1510 1510 1509 1509 1509 1509 1510 1510 1510 1510 1511 1511 1511 1511 1512 1512 1512 1513 1513 1514 1514 1514 1515 1515 1515 1516 1516 1517 1517 1517 1518 1518 1519 1520 1521 1522 1523 1524 1525 1526 1527
1513 1511 1511 1510 1510 1510 1510 1510 1511 1511 1511 1512 1512 1512 1513 1513 1513 1514 1514 1514 1515 1515 1516 1516 1517 1517 1517 1518 1518 1519 1519 1520 1520 1521 1521 1522 1523 1524 1525 1525 1526 1527 1528
1513 1512 1512 1511 1511 1511 1511 1511 1512 1512 1513 1513 1513 1514 1514 1515 1515 1515 1516 1516 1516 1517 1517 1518 1518 1519 1519 1520 1520 1521 1521 1522 1522 1523 1523 1524 1524 1525 1526 1527 1527 1528 1529
1514 1513 1513 1512 1512 1512 1512 1512 1513 1513 1514 1514 1515 1515 1516 1516 1516 1517 1517 1518 1518 1518 1519 1519 1519 1520 1521 1522 1522 1523 1523 1524 1524 1525 1525 1526 1526 1527 1527 1528 1528 1529 1529
1514 1514 1514 1513 1513 1513 1513 1513 1513 1514 1515 1515 1516 1517 1517 1518 1518 1519 1519 1519 1520 1520 1520 1521 1521 1522 1523 1523 1524 1524 1525 1526 1526 1526 1527 1527 1528 1529 1529 1529 1529 1530 1530
1515 1515 1515 1514 1514 1513 1513 1513 1514 1515 1516 1517 1517 1518 1519 1519 1520 1520 1521 1521 1521 1522 1522 1522 1523 1524 1524 1525 1526 1526 1527 1527 1528 1528 1529 1529 1529 1530 1530 1531 1531 1531 1532
1516 1516 1516 1516 1515 1514 1513 1512 1513 1515 1517 1518 1519 1520 1520 1521 1521 1522 1522 1522 1523 1523 1523 1524 1524 1525 1526 1527 1527 1528 1529 1529 1529 1530 1530 1531 1531 1531 1531 1532 1532 1532 1533
1518 1517 1517 1517 1516 1515 1512 1509 1510 1514 1517 1519 1520 1521 1522 1522 1523 1523 1523 1524 1524 1524 1525 1525 1526 1527 1527 1528 1529 1530 1530 1530 1531 1531 1532 1532 1532 1532 1532 1532 1533 1533 1533
1520 1519 1519 1518 1518 1516 1514 1512 1513 1516 1519 1521 1522 1523 1523 1524 1524 1524 1525 1525 1526 1526 1526 1527 1528 1529 1529 1530 1530 1531 1531 1532 1532 1533 1533 1533 1533 1533 1533 1533 1534 1534 1534
1521 1521 1521 1520 1520 1519 1518 1518 1518 1520 1522 1523 1524 1525 1525 1525 1526 1526 1527 1527 1527 1527 1528 1529 1530 1530 1531 1532 1532 1533 1533 1533 1534 1534 1534 1535 1535 1534 1534 1534 1535 1535 1535
1522 1522 1522 1522 1522 1521 1521 1521 1522 1523 1524 1525 1526 1527 1527 1528 1528 1528 1528 1529 1529 1529 1530 1530 1531 1532 1533 1533 1534 1534 1534 1535 1535 1535 1536 1536 1536 1536 1536 1536 1536 1536 1536
1523 1523 1524 1524 1524 1524 1524 1524 1525 1525 1526 1527 1528 1528 1529 1530 1530 1530 1530 1531 1531 1531 1531 1532 1532 1533 1534 1534 1535 1536 1536 1536 1536 1536 1537 1537 1537 1537 1537 1537 1537 1537 1537
1523 1524 1525 1525 1525 1525 1526 1526 1527 1527 1528 1529 1529 1530 1530 1531 1532 1532 1532 1532 1532 1532 1532 1533 1533 1534 1535 1536 1536 1537 1538 1538 1538 1538 1538 1538 1538 1538 1538 1538 1538 1538 1538
1524 1525 1525 1526 1526 1526 1527 1527 1528 1529 1529 1530 1531 1531 1532 1532 1533 1533 1533 1533 1533 1533 1534 1534 1534 1535 1536 1537 1538 1538 1539 1539 1539 1539 1539 1540 1540 1539 1539 1539 1539 1539 1539
1524 1525 1526 1527 1527 1528 1528 1529 1529 1530 1531 1531 1532 1533 1533 1533 1534 1534 1534 1534 1534 1535 1535 1535 1535 1536 1536 1537 1538 1539 1540 1540 1541 1541 1541 1541 1541 1541 1541 1541 1540 1540 1540
1524 1525 1526 1527 1528 1528 1529 1530 1530 1531 1532 1532 1533 1533 1534 1534 1535 1535 1535 1535 1535 1536 1536 1536 1536 1537 1537 1538 1539 1540 1541 1541 1542 1542 1542 1542 1542 1542 1542 1542 1542 1542 1541
1524 1525 1526 1528 1528 1529 1529 1530 1531 1532 1532 1533 1533 1534 1535 1535 1535 1535 1535 1536 1536 1536 1536 1537 1537 1538 1538 1539 1540 1541 1541 1542 1542 1543 1543 1543 1543 1543 1543 1543 1543 1543 1542
1523 1525 1526 1528 1529 1529 1530 1531 1532 1532 1533 1533 1534 1535 1535 1535 1535 1536 1536 1536 1537 1537 1537 1537 1538 1538 1539 1540 1541 1542 1542 1543 1543 1544 1544 1544 1544 1544 1544 1544 1543 1543 1543
1523 1524 1526 1527 1529 1529 1530 1531 1532 1532 1533 1534 1534 1535 1535 1536 1536 1536 1536 1537 1537 1537 1537 1538 1539 1539 1540 1540 1541 1542 1543 1543 1544 1545 1545 1545 1545 1544 1544 1544 1544 1544 1543
1522 1524 1525 1527 1528 1529 1530 1531 1532 1532 1533 1533 1534 1534 1535 1535 1536 1536 1536 1537 1537 1537 1538 1538 1539 1540 1541 1541 1542 1542 1543 1544 1544 1545 1545 1545 1545 1545 1545 1545 1544 1544 1544
1522 1523 1524 1526 1528 1528 1529 1530 1531 1532 1532 1533 1534 1534 1535 1535 1536 1536 1536 1537 1537 1537 1538 1539 1539 1540 1541 1541 1542 1542 1543 1544 1544 1545 1545 1545 1546 1546 1545 1545 1544 1544 1544
1520 1522 1523 1525 1526 1527 1528 1529 1530 1531 1532 1532 1533 1533 1534 1535 1535 1536 1536 1536 1537 1537 1538 1539 1539 1540 1541 1542 1542 1542 1543 1545 1545 1545 1545 1545 1546 1546 1545 1545 1545 1544 1544
1518 1520 1522 1523 1525 1526 1527 1528 1529 1530 1531 1532 1532 1533 1533 1534 1534 1535 1535 1536 1536 1537 1537 1538 1539 1539 1540 1542 1542 1543 1543 1543 1544 1546 1545 1545 1545 1545 1545 1545 1545 1544 1544
1517 1518 1520 1521 1523 1524 1525 1526 1528 1528 1529 1530 1531 1531 1532 1533 1533 1534 1534 1535 1535 1536 1537 1537 1538 1539 1540 1541 1542 1542 1543 1543 1544 1544 1545 1545 1545 1545 1545 1545 1544 1544 1543
1515 1516 1518 1520 1521 1522 1524 1525 1526 1527 1528 1529 1530 1530 1531 1531 1532 1532 1533 1533 1534 1535 1536 1536 1537 1538 1539 1540 1540 1541 1542 1542 1543 1543 1544 1544 1545 1544 1544 1544 1544 1543 1543
1513 1514 1516 1518 1519 1520 1521 1522 1524 1525 1526 1527 1528 1528 1529 1529 1530 1531 1531 1532 1532 1533 1534 1535 1535 1536 1537 1538 1539 1540 1541 1541 1542 1542 1542 1543 1543 1543 1543 1543 1542 1542 1542